Location: Asheville, NC
(35.6000°N, 82.5500°W)
Time: 16:20:33
(UTC-05:00)

SO-50 - Pass Details

Date: 08 January 2018
Orbit: 611 x 677 km, 64.6° (Epoch: 18 January)

Event Time Altitude Azimuth Distance (km) Brightness Sun altitude
Rises 19:28:06 0° 311° (NW) 2,984 ? -22.7°
Reaches altitude 10° 19:31:04 10° 291° (WNW) 2,079 ? -23.3°
Maximum altitude 19:34:08 17° 251° (WSW) 1,650 ? -23.9°
Drops below altitude 10° 19:37:13 10° 210° (SSW) 2,089 ? -24.5°
Sets 19:40:13 0° 191° (S) 3,004 ? -25.1°
